Regional Weather Roundup
Issued by NWS Newport/Morehead, NC

Current Version | Previous Version | Text Only | Print | Product List | Glossary On
Versions: 1 2 3 4 5 6 7 8 9 10 11 12 13 14 15 16 17 18 19 20 21 22 23 24 25 26 27 28 29 30 31 32 33 34 35 36 37 38 39 40 41 42 43 44 45 46 47 48 49 50
000 ASUS42 KMHX 272010 RWRMHX WEATHER ROUNDUP FOR EASTERN NORTH CAROLINA NATIONAL WEATHER SERVICE NEWPORT/MOREHEAD CITY NC 400 PM EDT WED AUG 27 2014 NOTE: "FAIR" INDICATES FEW OR NO CLOUDS BELOW 12,000 FEET WITH NO SIGNIFICANT WEATHER AND/OR OBSTRUCTIONS TO VISIBILITY NCZ015>017-031-032-045>047-102-103-272100- NORTH COAST CITY SKY/WX TMP DP RH WIND PRES REMARKS EDENTON MOSUNNY 84 67 56 NE7 29.95S ELIZABETH CITY SUNNY 83 69 62 NE13 29.95F KITTY HAWK PTCLDY 78 71 78 N10G18 29.94S MANTEO PTSUNNY 79 72 77 N13 29.95S $$ NCZ045>047-081-094-103-104-272100- CENTRAL COAST CITY SKY/WX TMP DP RH WIND PRES REMARKS FRISCO MOSUNNY 80 74 81 N13G23 29.92S SWANQUARTER N/A 84 N/A N/A NE12G18 29.88S $$ NCZ095-097-098-100-101-272100- SOUTHERN COAST CITY SKY/WX TMP DP RH WIND PRES REMARKS BEAUFORT MOSUNNY 86 70 58 N18G24 29.92F CEDAR ISLAND N/A 81 N/A N/A N12G17 29.97S JACKSONVILLE SUNNY 87 67 51 N13 29.93F NEWPORT NOT AVBL PINEY ISLAND CLEAR 85 73 67 N15G22 29.92F WILMINGTON PTSUNNY 88 68 51 N9 29.94F $$ NCZ011>013-027>030-043-044-078>080-089-090>093-098-272100- COASTAL PLAIN CITY SKY/WX TMP DP RH WIND PRES REMARKS AHOSKIE MOSUNNY 83 64 53 N9 29.97F CLINTON SUNNY 85 65 49 NW7 29.98S ELIZABETHTOWN SUNNY 87 61 41 N5 29.96F GOLDSBORO SUNNY 84 68 58 N9 29.95F GREENVILLE SUNNY 84 68 58 N8 29.98F HAVELOCK PTSUNNY 88 70 55 N15G22 29.94F KENANSVILLE SUNNY 83 63 50 N6 29.97F KINSTON MOSUNNY 84 66 54 MISG 29.97F NEW BERN MOSUNNY 87 69 54 N8 29.94F RICHLANDS MOSUNNY 84 66 54 N9 29.95F ROANOKE RAPIDS NOT AVBL ROCKY MOUNT SUNNY 85 56 37 N9 29.99F WASHINGTON MOSUNNY 84 68 59 N10 29.95F WHITEVILLE SUNNY 85 62 45 NW3 29.95F $$ AMZ130-135-150-152-154-156-158-170-250-252-270-ANZ085-086-088-633-658-670-272100- MARINE OBSERVATIONS STATION/POSITION TIME TEMP WIND PRES WAVE SWELL AIR SEA DIR/SP/G HT/PER HT/PER (UTC) (F) (DEG/KT/KT) (MB) (FT/S) (FT/S) CHESAPEAKE LIGHT 1900 73 20/ 11/ 13 1015.8 BUOY 44014 2000 77 78 20/ 16/ 17 1013.0 8/14 7/14 DUCK 2000 74 77 360/ 17/ 19 1013.4 2E DUCK 2000 N/A 5/13 2/13 OREGON INLET 2000 78 78 360/ 14/ 20 1013.5 BUOY 44095 2000 76 N/A 8/13 5/13 20E OREGON INLET NOT AVBL HATTERAS CG 2000 77 79 10/ 21/ 23 1013.3 DIAMOND BUOY 2000 77 360/ 23/ 27 1011.5 11/12 8/12 CAPE LOOKOUT 1900 83 20/ 16/ 21 1013.2 BEAUFORT LAB 2000 84 79 20/ 11/ 20 1012.8 30 SE NEW RIVER 2000 81 80 360/ 14/ 16 1013.4 7/12 7/12 5 SE WRIGHTSVILL 2000 79 81 30/ 8/ 10 N/A BUOY 41002 1938 78 81 340/ 19/ 25 1009.2 11/10 5/10 BUOY 41004 2000 80 82 360/ 12/ 16 1014.2 6/ 9 5/ 9 $$

USA.gov is the U.S. government's official web portal to all federal, state and local government web resources and services.